Low Moor, IA

10:17 PM CST on February 27, 2017 (GMT -0600)
Clinton Municipal

Weather History for KCWI - April, 2013

Change the Weather History Date:

Friday, April 26, 2013

  Actual Average Record
Temperature  
Mean Temperature 54 °F -  
Max Temperature 68 °F 70 °F 88 °F (1986)
Min Temperature 39 °F 44 °F 28 °F (2006)
Degree Days  
Heating Degree Days 12    
Growing Degree Days 4 (Base 50)    
Moisture  
Dew Point 38 °F    
Average Humidity 55    
Maximum Humidity 76    
Minimum Humidity 40    
Precipitation  
Precipitation 0.00 in - - ()
Sea Level Pressure  
Sea Level Pressure 30.26 in    
Wind  
Wind Speed 14 mph (South)    
Max Wind Speed 29 mph    
Max Gust Speed 34 mph    
Visibility 10 miles    
Events      
Averages and records for this station are not official NWS values.
T = Trace of Precipitation, MM = Missing Value Source: NWS Daily Summary

Daily Weather History Graph

Daily Weather History Graph

Search for Another Location

Airport or City:

Trip Planner

Search our weather history database for the weather conditions in past years. The results will help you decide how hot, cold, wet, or windy it might be!

Date:

Astronomy

Apr. 26, 2013 Rise Set
Actual Time 6:04 AM CDT 7:54 PM CDT
Civil Twilight 5:34 AM CDT 8:24 PM CDT
Nautical Twilight 4:57 AM CDT 9:01 PM CDT
Astronomical Twilight 4:18 AM CDT 9:40 PM CDT
Moon 9:18 PM CDT (4/26) 6:30 AM CDT (4/26)
Length of Visible Light 14h 50m
Length of Day
13h 50m
Full, 99% of the Moon is Illuminated
Apr 26
Full
May 2
Last Quarter
May 9
New
May 17
First Quarter
May 24
Full

Hourly Weather History & Observations

Time (CDT) Temp. Windchill Dew Point Humidity Pressure Visibility Wind Dir Wind Speed Gust Speed Precip Events Conditions
12:15 AM 39.2 °F 33.6 °F 28.4 °F 65% 30.30 in 10.0 mi SE 8.1 mph - N/A   Clear
12:35 AM 41.0 °F 34.7 °F 28.4 °F 61% 30.30 in 10.0 mi SE 10.4 mph - N/A   Clear
12:55 AM 39.2 °F 33.0 °F 28.4 °F 65% 30.30 in 10.0 mi SE 9.2 mph - N/A   Clear
1:15 AM 39.2 °F 32.5 °F 28.4 °F 65% 30.29 in 10.0 mi SE 10.4 mph - N/A   Clear
1:35 AM 41.0 °F 34.7 °F 30.2 °F 65% 30.29 in 10.0 mi SE 10.4 mph - N/A   Clear
2:15 AM 42.8 °F 36.6 °F 28.4 °F 57% 30.27 in 10.0 mi SSE 11.5 mph - N/A   Clear
2:35 AM 42.8 °F 36.2 °F 28.4 °F 57% 30.26 in 10.0 mi SE 12.7 mph - N/A   Clear
2:55 AM 42.8 °F 35.8 °F 28.4 °F 57% 30.26 in 10.0 mi SSE 13.8 mph - N/A   Clear
3:15 AM 42.8 °F 35.8 °F 28.4 °F 57% 30.26 in 10.0 mi SSE 13.8 mph - N/A   Clear
3:35 AM 42.8 °F 36.2 °F 30.2 °F 61% 30.26 in 10.0 mi SSE 12.7 mph - N/A   Clear
3:55 AM 42.8 °F 37.0 °F 28.4 °F 57% 30.26 in 10.0 mi South 10.4 mph - N/A   Clear
4:15 AM 42.8 °F 36.6 °F 30.2 °F 61% 30.26 in 10.0 mi SSE 11.5 mph - N/A   Clear
4:35 AM 42.8 °F 37.0 °F 30.2 °F 61% 30.26 in 10.0 mi SSE 10.4 mph - N/A   Clear
4:55 AM 42.8 °F 37.0 °F 30.2 °F 61% 30.26 in 10.0 mi SSE 10.4 mph - N/A   Mostly Cloudy
5:15 AM 42.8 °F 37.0 °F 30.2 °F 61% 30.26 in 10.0 mi SSE 10.4 mph - N/A   Mostly Cloudy
5:35 AM 44.6 °F 38.4 °F 30.2 °F 57% 30.26 in 10.0 mi SSE 12.7 mph - N/A   Partly Cloudy
5:55 AM 44.6 °F 38.8 °F 30.2 °F 57% 30.26 in 10.0 mi SSE 11.5 mph - N/A   Partly Cloudy
6:15 AM 44.6 °F 38.4 °F 30.2 °F 57% 30.26 in 10.0 mi SSE 12.7 mph - N/A   Partly Cloudy
6:35 AM 44.6 °F 38.8 °F 32.0 °F 61% 30.26 in 10.0 mi SSE 11.5 mph - N/A   Clear
6:55 AM 44.6 °F 38.1 °F 33.8 °F 66% 30.25 in 10.0 mi SE 13.8 mph - N/A   Clear
7:15 AM 44.6 °F 38.4 °F 33.8 °F 66% 30.26 in 10.0 mi SSE 12.7 mph - N/A   Clear
7:35 AM 46.4 °F 40.4 °F 33.8 °F 62% 30.26 in 10.0 mi SSE 13.8 mph - N/A   Clear
7:55 AM 46.4 °F 40.7 °F 33.8 °F 62% 30.26 in 10.0 mi SSE 12.7 mph - N/A   Clear
8:15 AM 48.2 °F - 33.8 °F 58% 30.25 in 10.0 mi SSE 12.7 mph - N/A   Clear
8:35 AM 48.2 °F - 35.6 °F 62% 30.26 in 10.0 mi SSE 13.8 mph - N/A   Clear
8:55 AM 51.8 °F - 35.6 °F 54% 30.26 in 10.0 mi South 12.7 mph - N/A   Clear
9:15 AM 53.6 °F - 35.6 °F 51% 30.26 in 10.0 mi South 15.0 mph 19.6 mph N/A   Partly Cloudy
9:35 AM 53.6 °F - 37.4 °F 54% 30.26 in 10.0 mi South 12.7 mph - N/A   Clear
9:55 AM 55.4 °F - 37.4 °F 51% 30.26 in 10.0 mi South 12.7 mph - N/A   Clear
10:15 AM 55.4 °F - 37.4 °F 51% 30.27 in 10.0 mi South 12.7 mph - N/A   Clear
10:35 AM 59.0 °F - 39.2 °F 48% 30.26 in 10.0 mi SSW 16.1 mph - N/A   Clear
10:55 AM 60.8 °F - 39.2 °F 45% 30.26 in 10.0 mi SSW 21.9 mph 29.9 mph N/A   Partly Cloudy
11:15 AM 62.6 °F - 41.0 °F 45% 30.26 in 10.0 mi SW 23.0 mph - N/A   Clear
11:35 AM 64.4 °F - 42.8 °F 45% 30.26 in 10.0 mi SW 18.4 mph - N/A   Clear
11:55 AM 64.4 °F - 42.8 °F 45% 30.26 in 10.0 mi SW 24.2 mph 27.6 mph N/A   Clear
12:15 PM 64.4 °F - 42.8 °F 45% 30.25 in 10.0 mi SW 28.8 mph 32.2 mph N/A   Clear
12:35 PM 66.2 °F - 44.6 °F 46% 30.25 in 10.0 mi SW 25.3 mph 33.4 mph N/A   Clear
12:55 PM 66.2 °F - 42.8 °F 43% 30.25 in 10.0 mi SW 21.9 mph 32.2 mph N/A   Clear
1:15 PM 66.2 °F - 44.6 °F 46% 30.24 in 10.0 mi SW 23.0 mph 33.4 mph N/A   Clear
1:35 PM 66.2 °F - 44.6 °F 46% 30.24 in 10.0 mi SSW 23.0 mph 31.1 mph N/A   Clear
1:55 PM 68.0 °F - 46.4 °F 46% 30.24 in 10.0 mi SSW 24.2 mph 31.1 mph N/A   Partly Cloudy
2:15 PM 66.2 °F - 42.8 °F 43% 30.23 in 10.0 mi SW 24.2 mph 31.1 mph N/A   Clear
2:35 PM 66.2 °F - 42.8 °F 43% 30.23 in 10.0 mi SSW 24.2 mph 34.5 mph N/A   Clear
2:55 PM 66.2 °F - 41.0 °F 40% 30.23 in 10.0 mi SSW 28.8 mph 33.4 mph N/A   Clear
3:15 PM 64.4 °F - 39.2 °F 40% 30.23 in 10.0 mi SSW 24.2 mph 27.6 mph N/A   Clear
3:35 PM 64.4 °F - 41.0 °F 42% 30.22 in 10.0 mi SSW 25.3 mph 29.9 mph N/A   Clear
3:55 PM 64.4 °F - 42.8 °F 45% 30.22 in 10.0 mi SSW 19.6 mph 31.1 mph N/A   Clear
4:15 PM 66.2 °F - 42.8 °F 43% 30.22 in 10.0 mi SSW 23.0 mph 29.9 mph N/A   Clear
4:35 PM 64.4 °F - 42.8 °F 45% 30.21 in 10.0 mi SW 27.6 mph 33.4 mph N/A   Partly Cloudy
4:55 PM 66.2 °F - 44.6 °F 46% 30.22 in 10.0 mi SSW 16.1 mph - N/A   Scattered Clouds
5:15 PM 66.2 °F - 44.6 °F 46% 30.21 in 10.0 mi SW 21.9 mph 28.8 mph N/A   Mostly Cloudy
5:35 PM 64.4 °F - 42.8 °F 45% 30.22 in 10.0 mi SSW 19.6 mph 25.3 mph N/A   Mostly Cloudy
5:55 PM 62.6 °F - 42.8 °F 48% 30.23 in 10.0 mi SSW 20.7 mph 26.5 mph N/A   Overcast
6:15 PM 62.6 °F - 42.8 °F 48% 30.22 in 10.0 mi SSW 20.7 mph 26.5 mph N/A   Mostly Cloudy
6:35 PM 62.6 °F - 42.8 °F 48% 30.23 in 10.0 mi SSW 16.1 mph - N/A   Partly Cloudy
6:55 PM 60.8 °F - 42.8 °F 52% 30.24 in 10.0 mi SSW 17.3 mph - N/A   Scattered Clouds
7:15 PM 60.8 °F - 42.8 °F 52% 30.24 in 10.0 mi SSW 16.1 mph - N/A   Scattered Clouds
7:35 PM 59.0 °F - 42.8 °F 55% 30.25 in 10.0 mi SSW 15.0 mph - N/A   Mostly Cloudy
7:55 PM 59.0 °F - 42.8 °F 55% 30.24 in 10.0 mi SSW 15.0 mph 19.6 mph N/A   Overcast
8:15 PM 57.2 °F - 42.8 °F 59% 30.25 in 10.0 mi SSW 12.7 mph - N/A   Overcast
8:35 PM 57.2 °F - 42.8 °F 59% 30.25 in 10.0 mi SSW 12.7 mph 17.3 mph N/A   Overcast
8:55 PM 55.4 °F - 42.8 °F 63% 30.26 in 10.0 mi SSW 11.5 mph - N/A   Overcast
9:15 PM 57.2 °F - 42.8 °F 59% 30.27 in 10.0 mi SSW 10.4 mph - N/A   Overcast
9:35 PM 55.4 °F - 42.8 °F 63% 30.28 in 10.0 mi SSW 8.1 mph - N/A   Overcast
9:55 PM 55.4 °F - 42.8 °F 63% 30.28 in 10.0 mi South 10.4 mph - N/A   Overcast
10:15 PM 55.4 °F - 42.8 °F 63% 30.29 in 10.0 mi South 6.9 mph - N/A   Overcast
10:35 PM 55.4 °F - 42.8 °F 63% 30.29 in 10.0 mi South 9.2 mph - N/A   Overcast
10:55 PM 53.6 °F - 42.8 °F 67% 30.29 in 10.0 mi South 6.9 mph - N/A   Overcast
11:15 PM 53.6 °F - 42.8 °F 67% 30.28 in 10.0 mi South 10.4 mph - N/A   Overcast
11:35 PM 51.8 °F - 42.8 °F 71% 30.28 in 10.0 mi South 9.2 mph - N/A   Mostly Cloudy
11:55 PM 50.0 °F - 42.8 °F 76% 30.28 in 10.0 mi South 6.9 mph - N/A   Mostly Cloudy